Wisconsin Dells, Wisconsin, United States (53965)
Lat: 43.63N, Lon: 89.77W
Wx Zone: WIZ057
Local Info
Past Weather Observations for Today

NOTE: This archive is for the closest National Weather Service station to Wisconsin Dells. Information may differ from the station used for current weather conditions.

Click here for Long-term Archive

Time Weather Temperature Dewpoint Humidity Pressure Winds Precip Visibility
20:50
Mostly Cloudy
25°F / -4°C 12°F / -11°C 59% 30.24 in
(1024 mb)
S 8.1 mph
(S 13 kph)
- 10SM
20:30
Overcast
25°F / -4°C 12°F / -11°C 59% 30.24 in
(1024 mb)
S 6.9 mph
(S 11 kph)
- 10SM
20:10
Overcast
25°F / -4°C 12°F / -11°C 59% 30.27 in
(1025 mb)
SSE 9.2 mph
(SSE 15 kph)
- 10SM
19:50
Overcast
25°F / -4°C 12°F / -11°C 59% 30.27 in
(1025 mb)
SSE 9.2 mph
(SSE 15 kph)
- 10SM
19:30
Overcast
25°F / -4°C 12°F / -11°C 59% 30.27 in
(1025 mb)
S 10.4 mph
(S 17 kph)
- 10SM
19:10
Overcast
25°F / -4°C 12°F / -11°C 59% 30.27 in
(1025 mb)
S 11.5 mph
(S 19 kph)
- 10SM
18:50
Overcast
25°F / -4°C 10°F / -12°C 54% 30.27 in
(1025 mb)
S 10.4 mph
(S 17 kph)
- 10SM
18:30
Overcast
25°F / -4°C 12°F / -11°C 59% 30.27 in
(1025 mb)
SSE 8.1 mph
(SSE 13 kph)
- 10SM
18:10
Overcast
25°F / -4°C 10°F / -12°C 54% 30.27 in
(1025 mb)
SE 5.8 mph
(SE 9 kph)
- 10SM
17:50
Overcast
27°F / -3°C 9°F / -13°C 46% 30.3 in
(1026 mb)
Calm - 10SM
17:30
Mostly Cloudy
27°F / -3°C 9°F / -13°C 46% 30.3 in
(1026 mb)
Calm - 10SM
17:10
Partly Cloudy
27°F / -3°C 10°F / -12°C 50% 30.3 in
(1026 mb)
Calm - 10SM
16:50
Clear
27°F / -3°C 9°F / -13°C 46% 30.33 in
(1027 mb)
Calm - 10SM
16:30
Clear
27°F / -3°C 7°F / -14°C 43% 30.33 in
(1027 mb)
S 6.9 mph
(S 11 kph)
- 10SM
16:10
Clear
27°F / -3°C 5°F / -15°C 39% 30.33 in
(1027 mb)
S 4.6 mph
(S 7 kph)
- 10SM
15:50
Clear
27°F / -3°C 7°F / -14°C 43% 30.36 in
(1028 mb)
Calm - 10SM
15:30
Clear
27°F / -3°C 5°F / -15°C 39% 30.36 in
(1028 mb)
Calm - 10SM
15:10
Clear
27°F / -3°C 7°F / -14°C 43% 30.36 in
(1028 mb)
Calm - 10SM
14:50
Clear
27°F / -3°C 5°F / -15°C 39% 30.36 in
(1028 mb)
Calm - 10SM
14:30
Clear
27°F / -3°C 5°F / -15°C 39% 30.39 in
(1029 mb)
Calm - 10SM
14:10
Clear
27°F / -3°C 7°F / -14°C 43% 30.39 in
(1029 mb)
SSW 4.6 mph
(SSW 7 kph)
- 10SM
13:50
Clear
27°F / -3°C 7°F / -14°C 43% 30.39 in
(1029 mb)
SSW 5.8 mph
(SSW 9 kph)
- 10SM
13:30
Clear
27°F / -3°C 5°F / -15°C 39% 30.42 in
(1030 mb)
SW 3.5 mph
(SW 6 kph)
- 10SM
13:10
Clear
25°F / -4°C 7°F / -14°C 46% 30.42 in
(1030 mb)
Calm - 10SM
12:50
Clear
25°F / -4°C 9°F / -13°C 50% 30.45 in
(1031 mb)
SSW 4.6 mph
(SSW 7 kph)
- 10SM
12:30
Clear
25°F / -4°C 9°F / -13°C 50% 30.45 in
(1031 mb)
SSW 5.8 mph
(SSW 9 kph)
- 10SM
12:10
Clear
23°F / -5°C 7°F / -14°C 50% 30.45 in
(1031 mb)
S 4.6 mph
(S 7 kph)
- 10SM
11:50
Clear
23°F / -5°C 7°F / -14°C 50% 30.45 in
(1031 mb)
SW 5.8 mph
(SW 9 kph)
- 10SM
11:30
Clear
23°F / -5°C 9°F / -13°C 54% 30.48 in
(1032 mb)
SW 3.5 mph
(SW 6 kph)
- 10SM
11:10
Clear
21°F / -6°C 9°F / -13°C 58% 30.48 in
(1032 mb)
SW 3.5 mph
(SW 6 kph)
- 10SM
10:50
Clear
21°F / -6°C 9°F / -13°C 58% 30.48 in
(1032 mb)
SSW 3.5 mph
(SSW 6 kph)
- 10SM
10:30
Clear
21°F / -6°C 9°F / -13°C 58% 30.51 in
(1033 mb)
SSW 5.8 mph
(SSW 9 kph)
- 10SM
10:10
Clear
19°F / -7°C 9°F / -13°C 63% 30.51 in
(1033 mb)
SSW 5.8 mph
(SSW 9 kph)
- 10SM
09:50
Clear
19°F / -7°C 9°F / -13°C 63% 30.51 in
(1033 mb)
Calm - 10SM
09:30
Clear
19°F / -7°C 9°F / -13°C 63% 30.48 in
(1032 mb)
Calm - 10SM
09:10
Clear
18°F / -8°C 9°F / -13°C 68% 30.48 in
(1032 mb)
NW 3.5 mph
(NW 6 kph)
- 10SM
08:50
Clear
18°F / -8°C 9°F / -13°C 68% 30.48 in
(1032 mb)
NW 5.8 mph
(NW 9 kph)
- 10SM
08:30
Clear
16°F / -9°C 9°F / -13°C 73% 30.48 in
(1032 mb)
NW 3.5 mph
(NW 6 kph)
- 10SM
08:10
Clear
14°F / -10°C 9°F / -13°C 79% 30.51 in
(1033 mb)
W 4.6 mph
(W 7 kph)
- 10SM
07:50
Clear
12°F / -11°C 9°F / -13°C 85% 30.48 in
(1032 mb)
W 3.5 mph
(W 6 kph)
- 10SM
07:30
Clear
9°F / -13°C 5°F / -15°C 85% 30.45 in
(1031 mb)
Calm - 10SM
07:10
Clear
7°F / -14°C 3°F / -16°C 85% 30.45 in
(1031 mb)
Calm - 10SM
06:50
Clear
9°F / -13°C 5°F / -15°C 85% 30.45 in
(1031 mb)
Calm - 10SM
06:30
Clear
9°F / -13°C 5°F / -15°C 85% 30.45 in
(1031 mb)
Calm - 10SM
06:10
Clear
10°F / -12°C 7°F / -14°C 85% 30.45 in
(1031 mb)
Calm - 10SM
05:50
Clear
10°F / -12°C 7°F / -14°C 85% 30.42 in
(1030 mb)
Calm - 10SM
05:30
Clear
7°F / -14°C 5°F / -15°C 92% 30.42 in
(1030 mb)
NW 3.5 mph
(NW 6 kph)
- 10SM
05:10
Clear
9°F / -13°C 5°F / -15°C 85% 30.42 in
(1030 mb)
W 3.5 mph
(W 6 kph)
- 10SM
04:50
Clear
10°F / -12°C 7°F / -14°C 85% 30.42 in
(1030 mb)
Calm - 10SM
04:30
Clear
12°F / -11°C 7°F / -14°C 79% 30.39 in
(1029 mb)
Calm - 10SM
04:15
Clear
12°F / -11°C 9°F / -13°C 85% 30.39 in
(1029 mb)
Calm - 10SM
03:50
Clear
12°F / -11°C 7°F / -14°C 79% 30.39 in
(1029 mb)
SW 3.5 mph
(SW 6 kph)
- 10SM
03:30
Clear
14°F / -10°C 9°F / -13°C 79% 30.39 in
(1029 mb)
W 3.5 mph
(W 6 kph)
- 10SM
03:10
Clear
14°F / -10°C 9°F / -13°C 79% 30.39 in
(1029 mb)
W 5.8 mph
(W 9 kph)
- 10SM
02:50
Clear
14°F / -10°C 9°F / -13°C 79% 30.36 in
(1028 mb)
WNW 5.8 mph
(WNW 9 kph)
- 10SM
02:30
Clear
16°F / -9°C 9°F / -13°C 73% 30.36 in
(1028 mb)
W 5.8 mph
(W 9 kph)
- 10SM
02:10
Clear
16°F / -9°C 9°F / -13°C 73% 30.36 in
(1028 mb)
W 6.9 mph
(W 11 kph)
- 10SM
01:50
Clear
16°F / -9°C 9°F / -13°C 73% 30.36 in
(1028 mb)
W 8.1 mph
(W 13 kph)
- 10SM
01:30
Clear
16°F / -9°C 9°F / -13°C 73% 30.36 in
(1028 mb)
W 8.1 mph
(W 13 kph)
- 10SM
01:10
Clear
18°F / -8°C 9°F / -13°C 68% 30.36 in
(1028 mb)
W 6.9 mph
(W 11 kph)
- 10SM
00:50
Clear
18°F / -8°C 9°F / -13°C 68% 30.33 in
(1027 mb)
W 9.2 mph
(W 15 kph)
- 10SM
00:30
Clear
16°F / -9°C 9°F / -13°C 73% 30.33 in
(1027 mb)
W 8.1 mph
(W 13 kph)
- 10SM
00:10
Clear
18°F / -8°C 9°F / -13°C 68% 30.33 in
(1027 mb)
W 8.1 mph
(W 13 kph)
- 10SM
Time Weather Temperature Dewpoint Humidity Pressure Winds Precip Visibility


Weather for websites

WeatherForYou.com, LLC is not responsible for any damages or problems caused by this service. Current weather conditions are obtained from the closest station including government and personal stations which may have varying degrees of accuracy. Weather forecasts are derived from the NOAA NDFD. Like all things, this site belongs to Jesus Christ... He just trusts me to maintain it. If you have any questions or comments email webmaster@weatherforyou.com

Copyright © 2015, WeatherForYou.com LLC. All rights reserved.